SL-16 DEB, 18417

Orbit data source: Space-Track

SL-16 DEB, 18417 is space debris in LEO originally from a launch on Wed, 18 Mar 1987 UTC launched from the Tyuratam Missile And Space Complex (TTMTR). Debris objects in space refer to the collection of defunct objects orbiting the Earth. Examples of debris include non-operational satellites, rocket bodies, and fragments generated from explosions, collisions, or faulty payload assembly.

Loading next visibility...
SL-16 DEB details
Identifier
18417, 1987-027D
Orbit
LEO
Last TLE update21 hours ago
Origin
Flag of CISUNKS (CIS)
ManufacturerYuzhnoe
MissionSpacecraft
Bus & MotorSEP MOTOR COVER, Unknown motor
Mass~0 kg wet, ~1 kg dry
Launch date (UTC)
1987-03-18 (38 years ago)
Launch vehicleUnknown
Launch site
Tyuratam Missile And Space Complex (TTMTR)
Object type
Payload
Rocket body
Debris
Shape & HBRUnknown
Radar Cross SectionSmall (<0.1 m²)

Expand to show TLE details & history

TLE from 21 hours ago
0 SL-16 DEB
1 18417U 87027D   25018.16837046  .00000171  00000-0  19507-3 0  9990
2 18417  70.9988 274.9124 0203953 289.3513 237.0072 13.74480767896748
Epoch: 2025-01-18T04:02Z
Definitive object data (Epoch: 2025-01-18T04:02:27.207Z)
Latitude14.68888°
Longitude-88.67486°
Altitude1,069.059 km
Speed7.277 km/s
True Right ascension05h 59m 02s
True Declination14° 36' 30"
Sunlit
Object was in full shadow at TLE epoch
Visualization TLE readout
Latitude69.48055°
Longitude161.0565°
Altitude1,129.039 km
Speed7.228 km/s
Apparent Right ascension15h 34m 00s
Apparent Declination40° 17' 39"
Sunlit
Object is in daylight
Visualization observer readout
Local Sidereal Time01:29:18
Azimuth336.652° NNW
Elevation-4.907°
Doppler factor1
Orbital elements
Apogee altitude1,131.594 km
Perigee altitude831.39 km
Semi-major axis7,359.629 km
Eccentricity0.0203953
Inclination70.9988°
RAAN274.9124°
Arg. of periapsis289.3513°
True anomaly235.07418°
Mean anomaly237.0072°
Eccentric anomaly236.03798°
Mean motion3.43763 °/min
BSTAR0.00019507
Orbital period104.72 mins
Loading maneuver chart data...
Loading historical data...
Loading historical data...
Loading historical data...
Loading historical data...
Loading historical data...
Loading historical data...
Loading historical data...

SL-16 DEB Visibility forecast

Observer location: undefined°, undefined

Span
Click to sort rows by Start time (UTC) header in descending order
Start Az.
Max El. time (UTC)
Max El. Az.
Max El.
End time (UTC)
End Az.
9 mins2025-01-19 02:29:06.815Z4.93° NNE2025-01-19 02:34:06.815Z54.57° ENE21.246°2025-01-19 02:38:06.815Z93.883° ESE
12 mins2025-01-19 04:16:06.815Z332.688° NNW2025-01-19 04:22:06.815Z218.164° SW43.886°2025-01-19 04:28:06.815Z166.102° S
11 mins2025-01-19 17:46:06.815Z181.346° SSW2025-01-19 17:51:06.815Z98.024° ESE40.654°2025-01-19 17:57:06.815Z31.087° NE
9 mins2025-01-19 19:35:06.815Z265.979° W2025-01-19 19:38:06.815Z301.261° NW24.01°2025-01-19 19:44:06.815Z2.511° NNE
|